Location: Estes Park
(40.3770°N, 105.5210°W)
Time: 12:42:45
(UTC-07:00)

Vanguard 2 Rocket - Visible Passes

Search period start: 15 December 2017 00:00
Search period end: 25 December 2017 00:00
Orbit: 556 x 3326 km, 32.9° (Epoch: 15 December)

Date Brightness Start Highest point End Pass type
(mag) Time Alt. Az. Time Alt. Az. Time Alt. Az.
15 Dec 10.8 02:06:47 10° SSE 02:06:47 10° SSE 02:06:58 10° SSE visible
15 Dec 9.3 17:51:54 10° SW 18:01:18 41° SSE 18:12:22 18° E visible
15 Dec 9.1 20:03:37 10° WSW 20:16:27 65° S 20:18:10 63° SE visible
15 Dec 10.1 22:17:40 10° W 22:23:58 32° WSW 22:23:58 32° WSW visible
16 Dec11.101:10:36SE01:10:36SE00:29:46Wvisible
16 Dec 9.4 16:54:02 10° SSW 17:01:40 30° SE 17:13:22 10° E visible
16 Dec 9.1 19:04:29 10° WSW 19:15:31 59° SSE 19:21:56 41° ESE visible
16 Dec 9.5 21:17:39 10° W 21:27:44 54° SW 21:27:44 54° SW visible
16 Dec 10.8 23:32:48 10° W 23:33:32 12° W 23:33:32 12° W visible
17 Dec 9.0 18:05:46 10° SW 18:15:09 50° SSE 18:25:42 22° E visible
17 Dec 9.1 20:18:01 10° WSW 20:30:45 66° S 20:31:30 66° SSE visible
17 Dec 10.2 22:32:14 10° W 22:37:18 27° W 22:37:18 27° W visible
18 Dec 9.1 17:07:30 10° SSW 17:15:20 38° SSE 17:28:13 10° E visible
18 Dec 9.0 19:18:47 10° WSW 19:29:45 63° S 19:35:17 46° ESE visible
18 Dec 9.6 21:32:10 10° W 21:41:05 47° WSW 21:41:05 47° WSW visible
19 Dec 8.9 18:19:55 10° WSW 18:29:15 57° SSE 18:39:04 25° E visible
19 Dec 9.1 20:32:31 10° W 20:44:52 64° S 20:44:52 64° S visible
19 Dec 10.4 22:46:55 10° W 22:50:41 22° W 22:50:41 22° W visible
20 Dec 8.9 17:21:25 10° SW 17:29:16 47° SSE 17:42:47 10° E visible
20 Dec 8.9 19:33:14 10° WSW 19:44:05 64° S 19:48:42 50° SE visible
20 Dec 9.8 21:46:47 10° W 21:54:30 39° WSW 21:54:30 39° WSW visible
21 Dec 8.8 18:34:16 10° WSW 18:43:31 61° S 18:52:33 28° ESE visible
21 Dec 9.2 20:47:06 10° W 20:58:21 58° SSW 20:58:21 58° SSW visible
21 Dec 10.6 23:01:52 10° W 23:04:10 16° W 23:04:10 16° W visible
22 Dec 8.7 17:35:36 10° WSW 17:43:25 54° SSE 17:56:26 12° E visible
22 Dec 9.0 19:47:46 10° W 19:58:27 61° S 20:02:15 51° SE visible
22 Dec 10.0 22:01:32 10° W 22:08:04 32° WSW 22:08:04 32° WSW visible
23 Dec 8.8 18:48:44 10° WSW 18:57:54 61° S 19:06:12 30° ESE visible
23 Dec 9.4 21:01:45 10° W 21:12:01 49° SW 21:12:01 49° SW visible
23 Dec 10.7 23:17:19 10° W 23:17:50 11° W 23:17:50 11° W visible
24 Dec 8.6 17:49:59 10° WSW 17:57:44 57° S 18:10:12 13° E visible
24 Dec 9.1 20:02:22 10° W 20:12:50 55° SSW 20:16:01 49° SSE visible
24 Dec 10.2 22:16:36 10° W 22:21:51 25° WSW 22:21:51 25° WSW visible
